Tracking 22124 objects as of 23-Jan-2021
HD Live streaming from Space Station
objects crossing your sky now

ZHEDA PIXING 1C

Track ZHEDA PIXING 1C now!
10-day predictions
ZHEDA PIXING 1C is classified as:


NORAD ID: 37167
Int'l Code: 2010-047C
Perigee: 618.4 km
Apogee: 648.9 km
Inclination: 97.7 °
Period: 97.2 minutes
Semi major axis: 7004 km
RCS: 0.149 m2 (medium)
Launch date: September 22, 2010
Source: People's Republic of China (PRC)
Launch site: Jiuquan Satellite Launch Center, China (JSC)
aabbcc
Your satellite tracking list
Your tracking list is empty




NASA's NSSDC Master Catalog

Two Line Element Set (TLE):
1 37167U 10047C   21022.72818912  .00000123  00000-0  22467-4 0  9992
2 37167  97.7287   7.4316 0021811 259.6760 100.1995 14.80889875558208
Source of the keplerian elements: AFSPC